Location: Bégole
(43.1574°N, 0.3291°E)
Time: 21:23:55
(UTC+00:00)

NOAA 16 DEB - Pass Details

Date: 05 March 2024
Orbit: 831 x 875 km, 98.7° (Epoch: 21 April)

Event Time Altitude Azimuth Distance (km) Brightness Sun altitude
Rises 19:59:00 0° 190° (S) 3,393 ? -23.5°
Reaches altitude 10° 20:01:35 10° 200° (SSW) 2,455 ? -24.0°
Maximum altitude 20:06:28 33° 263° (W) 1,365 ? -24.8°
Drops below altitude 10° 20:11:23 10° 328° (NNW) 2,462 ? -25.7°
Sets 20:13:57 0° 338° (NNW) 3,388 ? -26.2°
